| time (UTC) | temp F | wind direction | speed knots | gust knots | rain 1hr in | rain 24hr in | rain mn in | humidity % | barometer mb |
| 20260507235017 | 50 | 0.0 | 0.0 | 0.00 | 0.00 | 0.00 | 90 | 1016.8 | |
| 20260507234017 | 50 | 0.0 | 0.0 | 0.00 | 0.00 | 0.00 | 90 | 1016.6 | |
| 20260507233017 | 50 | 0.0 | 0.0 | 0.00 | 0.00 | 0.00 | 90 | 1016.6 | |
| 20260507232017 | 50 | 0.0 | 0.0 | 0.00 | 0.00 | 0.00 | 90 | 1016.5 | |
| 20260507231037 | 51 | 0.0 | 0.9 | 0.00 | 0.00 | 0.00 | 90 | 1016.6 | |
| 20260507230037 | 51 | 0.0 | 0.0 | 0.00 | 0.00 | 0.00 | 90 | 1016.5 | |
| 20260507225016 | 51 | 0.0 | 0.0 | 0.00 | 0.00 | 0.00 | 90 | 1016.8 | |
| 20260507224015 | 51 | 0.0 | 0.0 | 0.00 | 0.00 | 0.00 | 90 | 1016.9 | |
| 20260507223035 | 51 | 0.0 | 0.0 | 0.00 | 0.00 | 0.00 | 90 | 1017.0 | |
| 20260507222015 | 52 | 0.0 | 0.0 | 0.00 | 0.00 | 0.00 | 90 | 1016.9 | |
| 20260507221015 | 52 | 0.0 | 0.0 | 0.00 | 0.00 | 0.00 | 90 | 1016.9 | |
| 20260507220015 | 52 | 0.0 | 0.0 | 0.00 | 0.00 | 0.00 | 90 | 1016.9 | |
| 20260507215015 | 52 | 0.0 | 0.0 | 0.00 | 0.00 | 0.00 | 89 | 1016.9 | |
| 20260507214015 | 52 | 0.0 | 0.0 | 0.00 | 0.00 | 0.00 | 89 | 1016.9 | |
| 20260507213015 | 52 | 0.0 | 0.0 | 0.00 | 0.00 | 0.00 | 89 | 1016.9 | |
| 20260507212016 | 52 | 0.0 | 0.0 | 0.00 | 0.00 | 0.00 | 89 | 1016.8 | |
| 20260507211015 | 52 | 0.0 | 0.0 | 0.00 | 0.00 | 0.00 | 89 | 1016.7 | |
| 20260507210035 | 52 | 0.0 | 0.9 | 0.00 | 0.00 | 0.00 | 89 | 1016.7 | |
| 20260507205017 | 53 | 0.0 | 0.9 | 0.00 | 0.00 | 0.00 | 89 | 1016.7 | |
| 20260507204017 | 53 | 0.0 | 0.9 | 0.00 | 0.00 | 0.00 | 88 | 1016.6 | |
| 20260507203017 | 53 | 0.0 | 0.0 | 0.00 | 0.00 | 0.00 | 88 | 1016.5 | |
| 20260507202017 | 54 | 0.0 | 0.0 | 0.00 | 0.00 | 0.00 | 88 | 1016.4 | |
| 20260507201017 | 54 | 0.0 | 0.9 | 0.00 | 0.00 | 0.00 | 88 | 1016.2 | |
| 20260507200017 | 54 | 0.0 | 1.7 | 0.00 | 0.00 | 0.00 | 88 | 1016.0 | |
| 20260507195037 | 55 | 0.0 | 1.7 | 0.00 | 0.00 | 0.00 | 88 | 1015.9 | |
| 20260507194017 | 55 | 0.0 | 1.7 | 0.00 | 0.00 | 0.00 | 88 | 1015.7 | |
| 20260507193017 | 55 | 0.0 | 2.6 | 0.00 | 0.00 | 0.00 | 88 | 1015.6 | |
| 20260507192017 | 56 | 0.0 | 0.9 | 0.00 | 0.00 | 0.00 | 88 | 1015.6 | |
| 20260507191037 | 56 | 0.0 | 1.7 | 0.00 | 0.00 | 0.00 | 88 | 1015.5 | |
| 20260507190017 | 56 | 0.0 | 0.9 | 0.00 | 0.00 | 0.00 | 88 | 1015.5 | |
| 20260507185017 | 57 | 0.0 | 0.9 | 0.00 | 0.00 | 0.00 | 88 | 1015.6 | |
| 20260507184017 | 57 | 0.0 | 2.6 | 0.00 | 0.00 | 0.00 | 88 | 1015.4 | |
| 20260507183017 | 57 | 0.0 | 1.7 | 0.00 | 0.00 | 0.00 | 87 | 1015.4 | |
| 20260507182017 | 58 | 0.0 | 0.9 | 0.00 | 0.00 | 0.00 | 89 | 1015.3 | |
| 20260507181037 | 58 | 0.0 | 0.9 | 0.00 | 0.00 | 0.00 | 89 | 1015.2 | |
| 20260507180037 | 59 | 0.0 | 0.9 | 0.00 | 0.00 | 0.00 | 89 | 1015.2 | |
| 20260507175017 | 59 | 0.0 | 0.9 | 0.00 | 0.00 | 0.00 | 89 | 1015.2 | |
| 20260507174037 | 60 | 0.0 | 0.0 | 0.00 | 0.00 | 0.00 | 89 | 1015.1 | |
| 20260507173017 | 60 | 0.0 | 0.9 | 0.00 | 0.00 | 0.00 | 89 | 1015.0 | |
| 20260507172017 | 61 | 0.0 | 0.0 | 0.00 | 0.00 | 0.00 | 89 | 1015.0 | |
| 20260507171037 | 61 | 0.0 | 0.9 | 0.00 | 0.00 | 0.00 | 87 | 1015.1 | |
| 20260507170017 | 62 | 0.0 | 0.9 | 0.00 | 0.00 | 0.00 | 88 | 1015.1 | |
| 20260507165037 | 63 | 0.0 | 0.9 | 0.00 | 0.00 | 0.00 | 87 | 1015.1 | |
| 20260507164017 | 63 | 0.0 | 1.7 | 0.00 | 0.00 | 0.00 | 87 | 1015.2 | |
| 20260507163037 | 64 | 0.0 | 0.0 | 0.00 | 0.00 | 0.00 | 87 | 1015.1 | |
| 20260507162017 | 64 | 0.0 | 0.9 | 0.00 | 0.00 | 0.00 | 87 | 1015.2 | |
| 20260507161122 | 65 | 0.0 | 0.9 | 0.00 | 0.00 | 0.00 | 87 | 1015.2 | |
| 20260507160017 | 64 | 0.0 | 0.0 | 0.00 | 0.00 | 0.00 | 87 | 1015.2 | |
| 20260507155017 | 64 | 0.0 | 0.0 | 0.00 | 0.00 | 0.00 | 87 | 1015.2 | |
| 20260507154017 | 63 | 0.0 | 0.0 | 0.00 | 0.00 | 0.00 | 87 | 1015.2 | |
| 20260507153017 | 63 | 0.0 | 0.0 | 0.00 | 0.00 | 0.00 | 86 | 1015.3 | |
| 20260507152016 | 64 | 0.0 | 2.6 | 0.00 | 0.00 | 0.00 | 86 | 1015.4 | |
| 20260507151017 | 66 | 0.0 | 0.0 | 0.00 | 0.00 | 0.00 | 86 | 1015.4 | |
| 20260507150057 | 66 | 0.0 | 0.9 | 0.00 | 0.00 | 0.00 | 86 | 1015.4 | |
| 20260507145016 | 66 | 0.0 | 1.7 | 0.00 | 0.00 | 0.00 | 86 | 1015.4 | |
| 20260507144016 | 66 | 0.0 | 2.6 | 0.00 | 0.00 | 0.00 | 85 | 1015.4 | |
| 20260507143016 | 66 | 0.0 | 3.5 | 0.00 | 0.00 | 0.00 | 85 | 1015.4 | |
| 20260507142036 | 66 | 0.0 | 2.6 | 0.00 | 0.00 | 0.00 | 85 | 1015.5 | |
| 20260507141016 | 66 | 0.0 | 0.0 | 0.00 | 0.00 | 0.00 | 84 | 1015.6 | |
| 20260507140017 | 66 | 0.0 | 3.5 | 0.00 | 0.00 | 0.00 | 84 | 1015.7 | |
| 20260507135016 | 65 | 0.0 | 2.6 | 0.00 | 0.00 | 0.00 | 83 | 1015.7 | |
| 20260507134017 | 64 | 0.0 | 3.5 | 0.00 | 0.00 | 0.00 | 81 | 1015.7 | |
| 20260507133017 | 63 | 0.0 | 2.6 | 0.00 | 0.00 | 0.00 | 80 | 1015.8 | |
| 20260507132016 | 63 | 0.0 | 1.7 | 0.00 | 0.00 | 0.00 | 82 | 1015.8 | |
| 20260507131016 | 63 | 0.0 | 0.9 | 0.00 | 0.00 | 0.00 | 81 | 1015.8 | |
| 20260507130016 | 64 | 0.0 | 2.6 | 0.00 | 0.00 | 0.00 | 84 | 1015.9 | |
| 20260507125016 | 65 | 0.0 | 2.6 | 0.00 | 0.00 | 0.00 | 88 | 1016.1 | |
| 20260507124016 | 65 | 0.0 | 4.3 | 0.00 | 0.00 | 0.00 | 90 | 1016.0 | |
| 20260507123016 | 65 | 0.0 | 1.7 | 0.00 | 0.00 | 0.00 | 91 | 1016.1 | |
| 20260507122016 | 67 | 0.0 | 2.6 | 0.00 | 0.00 | 0.00 | 91 | 1016.1 | |
| 20260507121056 | 65 | 0.0 | 1.7 | 0.00 | 0.00 | 0.00 | 91 | 1016.1 | |
| 20260507120016 | 65 | 0.0 | 3.5 | 0.00 | 0.00 | 0.00 | 91 | 1016.2 | |
| 20260507115016 | 64 | 0.0 | 0.9 | 0.00 | 0.00 | 0.00 | 91 | 1016.2 | |
| 20260507114016 | 63 | 0.0 | 2.6 | 0.00 | 0.00 | 0.00 | 91 | 1016.2 | |
| 20260507113016 | 62 | 0.0 | 1.7 | 0.00 | 0.00 | 0.00 | 91 | 1016.4 | |
| 20260507112016 | 61 | 0.0 | 0.9 | 0.00 | 0.00 | 0.00 | 90 | 1016.4 | |
| 20260507111036 | 58 | 0.0 | 2.6 | 0.00 | 0.00 | 0.00 | 90 | 1016.4 | |
| 20260507110016 | 58 | 0.0 | 0.9 | 0.00 | 0.00 | 0.00 | 90 | 1016.5 | |
| 20260507105036 | 58 | 0.0 | 0.9 | 0.00 | 0.00 | 0.00 | 90 | 1016.6 | |
| 20260507104016 | 57 | 0.0 | 0.9 | 0.00 | 0.00 | 0.00 | 91 | 1016.6 | |
| 20260507103016 | 56 | 0.0 | 0.0 | 0.00 | 0.00 | 0.00 | 91 | 1016.6 | |
| 20260507102016 | 55 | 0.0 | 0.0 | 0.00 | 0.00 | 0.00 | 91 | 1016.7 | |
| 20260507101016 | 55 | 0.0 | 0.9 | 0.00 | 0.00 | 0.00 | 91 | 1016.7 | |
| 20260507100016 | 55 | 0.0 | 0.0 | 0.00 | 0.00 | 0.00 | 91 | 1016.7 | |
| 20260507095016 | 53 | 0.0 | 0.0 | 0.00 | 0.00 | 0.00 | 91 | 1016.7 | |
| 20260507094016 | 53 | 0.0 | 0.9 | 0.00 | 0.00 | 0.00 | 91 | 1016.8 | |
| 20260507092036 | 53 | 0.0 | 0.9 | 0.00 | 0.00 | 0.00 | 91 | 1016.8 | |
| 20260507091016 | 53 | 0.0 | 0.9 | 0.00 | 0.00 | 0.00 | 91 | 1016.7 | |
| 20260507090016 | 53 | 0.0 | 0.0 | 0.00 | 0.00 | 0.00 | 91 | 1016.7 | |
| 20260507085016 | 51 | 0.0 | 0.0 | 0.00 | 0.00 | 0.00 | 91 | 1016.7 | |
| 20260507084036 | 49 | 0.0 | 0.0 | 0.00 | 0.00 | 0.00 | 91 | 1016.8 | |
| 20260507083036 | 48 | 0.0 | 0.9 | 0.00 | 0.00 | 0.00 | 91 | 1016.8 | |
| 20260507082056 | 48 | 0.0 | 0.0 | 0.00 | 0.00 | 0.00 | 91 | 1016.7 | |
| 20260507081016 | 48 | 0.0 | 0.0 | 0.00 | 0.00 | 0.00 | 91 | 1016.7 | |
| 20260507080016 | 48 | 0.0 | 0.0 | 0.00 | 0.00 | 0.00 | 91 | 1016.7 | |
| 20260507075016 | 48 | 0.0 | 0.9 | 0.00 | 0.00 | 0.00 | 91 | 1016.7 | |
| 20260507074016 | 47 | 0.0 | 0.9 | 0.00 | 0.00 | 0.00 | 91 | 1016.6 | |
| 20260507073036 | 47 | 0.0 | 0.0 | 0.00 | 0.00 | 0.00 | 91 | 1016.7 | |
| 20260507072016 | 47 | 0.0 | 0.0 | 0.00 | 0.00 | 0.00 | 92 | 1016.6 | |
| 20260507071015 | 46 | 0.0 | 0.0 | 0.00 | 0.00 | 0.00 | 92 | 1016.6 | |
| 20260507070016 | 46 | 0.0 | 0.0 | 0.00 | 0.00 | 0.00 | 92 | 1016.6 | |
| 20260507065016 | 46 | 0.0 | 0.0 | 0.00 | 0.00 | 0.00 | 92 | 1016.6 | |
| 20260507064016 | 46 | 0.0 | 0.9 | 0.00 | 0.00 | 0.00 | 91 | 1016.6 | |
| 20260507063015 | 46 | 0.0 | 0.9 | 0.00 | 0.00 | 0.00 | 91 | 1016.5 | |
| 20260507062015 | 46 | 0.0 | 0.0 | 0.00 | 0.00 | 0.00 | 91 | 1016.5 | |
| 20260507061035 | 46 | 0.0 | 0.0 | 0.00 | 0.00 | 0.00 | 91 | 1016.5 | |
| 20260507060035 | 46 | 0.0 | 0.0 | 0.00 | 0.00 | 0.00 | 91 | 1016.4 | |
| 20260507055056 | 45 | 0.0 | 0.0 | 0.00 | 0.00 | 0.00 | 91 | 1016.3 | |
| 20260507054015 | 45 | 0.0 | 0.0 | 0.00 | 0.00 | 0.00 | 91 | 1016.4 | |
| 20260507053016 | 45 | 0.0 | 0.0 | 0.00 | 0.00 | 0.00 | 91 | 1016.3 | |
| 20260507052035 | 45 | 0.0 | 0.0 | 0.00 | 0.00 | 0.00 | 91 | 1016.3 | |
| 20260507051016 | 44 | 0.0 | 0.0 | 0.00 | 0.00 | 0.00 | 91 | 1016.3 | |
| 20260507050035 | 44 | 0.0 | 0.0 | 0.00 | 0.00 | 0.00 | 91 | 1016.2 | |
| 20260507045015 | 44 | 0.0 | 0.0 | 0.00 | 0.00 | 0.00 | 91 | 1016.1 | |
| 20260507044055 | 44 | 0.0 | 0.0 | 0.00 | 0.00 | 0.00 | 91 | 1016.1 | |
| 20260507043015 | 44 | 0.0 | 0.0 | 0.00 | 0.00 | 0.00 | 91 | 1016.1 | |
| 20260507042015 | 44 | 0.0 | 0.0 | 0.00 | 0.00 | 0.00 | 91 | 1016.1 | |
| 20260507041015 | 44 | 0.0 | 0.0 | 0.00 | 0.00 | 0.00 | 91 | 1016.0 | |
| 20260507040016 | 43 | 0.0 | 0.0 | 0.00 | 0.00 | 0.00 | 91 | 1016.0 | |
| 20260507035015 | 43 | 0.0 | 0.0 | 0.00 | 0.00 | 0.00 | 91 | 1016.0 | |
| 20260507034015 | 43 | 0.0 | 0.0 | 0.00 | 0.00 | 0.00 | 91 | 1016.1 | |
| 20260507033015 | 43 | 0.0 | 0.0 | 0.00 | 0.00 | 0.00 | 91 | 1015.9 | |
| 20260507032015 | 42 | 0.0 | 0.0 | 0.00 | 0.00 | 0.00 | 90 | 1015.9 | |
| 20260507031015 | 42 | 0.0 | 0.0 | 0.00 | 0.00 | 0.00 | 90 | 1016.0 | |
| 20260507030037 | 42 | 0.0 | 0.0 | 0.00 | 0.00 | 0.00 | 90 | 1016.0 | |
| 20260507025017 | 41 | 0.0 | 0.0 | 0.00 | 0.00 | 0.00 | 90 | 1015.9 | |
| 20260507024017 | 40 | 0.0 | 0.0 | 0.00 | 0.00 | 0.00 | 90 | 1015.9 | |
| 20260507023017 | 40 | 0.0 | 0.0 | 0.00 | 0.00 | 0.00 | 90 | 1016.0 | |
| 20260507022018 | 39 | 0.0 | 0.0 | 0.00 | 0.00 | 0.00 | 90 | 1016.0 | |
| 20260507021017 | 38 | 0.0 | 0.0 | 0.00 | 0.00 | 0.00 | 90 | 1015.9 | |
| 20260507020017 | 37 | 0.0 | 0.0 | 0.00 | 0.00 | 0.00 | 90 | 1015.9 | |
| 20260507015017 | 37 | 0.0 | 0.0 | 0.00 | 0.00 | 0.00 | 90 | 1015.8 | |
| 20260507014017 | 37 | 0.0 | 0.0 | 0.00 | 0.00 | 0.00 | 90 | 1015.7 | |
| 20260507013017 | 37 | 0.0 | 0.0 | 0.00 | 0.00 | 0.00 | 90 | 1015.8 | |
| 20260507012017 | 37 | 0.0 | 0.0 | 0.00 | 0.00 | 0.00 | 90 | 1015.8 | |
| 20260507011017 | 37 | 0.0 | 0.0 | 0.00 | 0.00 | 0.00 | 90 | 1015.7 | |
| 20260507010017 | 37 | 0.0 | 0.0 | 0.00 | 0.00 | 0.00 | 90 | 1015.7 | |
| 20260507005017 | 37 | 0.0 | 0.0 | 0.00 | 0.00 | 0.00 | 90 | 1015.7 | |
| 20260507004017 | 38 | 0.0 | 0.0 | 0.00 | 0.00 | 0.00 | 90 | 1015.7 | |
| 20260507003017 | 38 | 0.0 | 0.0 | 0.00 | 0.00 | 0.00 | 90 | 1015.8 | |
| 20260507002017 | 38 | 0.0 | 0.0 | 0.00 | 0.00 | 0.00 | 90 | 1015.9 | |
| 20260507001017 | 39 | 0.0 | 0.0 | 0.00 | 0.00 | 0.00 | 90 | 1015.8 | |
| 20260507000017 | 39 | 0.0 | 0.0 | 0.00 | 0.00 | 0.00 | 90 | 1015.8 |